Location: Saint-Gilles les Bains
(21.0539°S, 55.2287°E)
Time: 04:41:18
(UTC+04:00)

Hubble Space Telescope - Pass Details

Date: 16 April 2024
Orbit: 512 x 515 km, 28.5° (Epoch: 20 May)

Event Time Altitude Azimuth Distance (km) Brightness Sun altitude
Exits shadow 04:08:52 15° 105° (ESE) 1,456 3.6 -33.9°
Drops below altitude 10° 04:09:38 10° 106° (ESE) 1,748 4.1 -33.7°
Sets 04:11:53 0° 108° (ESE) 2,639 5.3 -33.2°
